CST,Max TemperatureF,Mean TemperatureF,Min TemperatureF,Max Dew PointF,MeanDew PointF,Min DewpointF,Max Humidity, Mean Humidity, Min Humidity, Max Sea Level PressureIn, Mean Sea Level PressureIn, Min Sea Level PressureIn, Max VisibilityMiles, Mean VisibilityMiles, Min VisibilityMiles, Max Wind SpeedMPH, Mean Wind SpeedMPH, Max Gust SpeedMPH,PrecipitationIn, CloudCover, Events, WindDirDegrees
2012-11-1,39,34,28,34,23,19,87,68,56,30.13,30.07,29.98,10,10,10,18,12,26,0.00,7,,353
2012-11-2,37,32,28,25,23,21,81,69,52,30.21,30.17,30.14,10,10,10,8,4,,0.00,6,,85
2012-11-3,37,34,32,28,25,23,79,67,60,30.26,30.23,30.17,10,10,1,9,5,,0.00,8,,122
2012-11-4,37,32,28,28,26,24,88,74,62,30.27,30.24,30.21,10,10,10,7,3,,0.00,7,,89
2012-11-5,36,34,32,34,30,25,100,84,70,30.25,30.03,29.78,10,6,1,13,5,,0.15,8,Rain-Snow,162
2012-11-6,37,35,33,34,33,30,100,90,86,30.03,29.80,29.68,10,7,2,21,12,29,0.05,8,Rain-Snow,294
2012-11-7,46,40,34,34,32,28,96,79,50,30.10,30.03,29.94,10,10,7,20,5,28,0.00,4,,235
2012-11-8,46,40,34,36,32,29,85,78,63,30.12,29.98,29.85,10,10,10,23,12,22,0.00,5,,349
2012-11-9,36,34,33,31,29,28,82,81,78,30.16,30.10,29.96,10,10,10,18,11,24,0.00,8,,60
2012-11-10,43,39,35,43,37,31,100,94,82,29.95,29.63,29.40,10,4,0,18,12,25,0.04,8,Fog-Rain,109
2012-11-11,42,30,17,41,19,12,100,84,74,29.85,29.73,29.42,10,6,2,20,14,25,0.01,8,Snow,264
2012-11-12,18,15,10,15,11,8,88,80,73,30.28,29.96,29.77,10,6,2,20,13,29,0.00,8,Snow,276
2012-11-13,34,22,10,26,18,7,88,80,70,30.30,30.28,30.25,10,10,10,7,4,,0.00,3,,177
2012-11-14,46,35,24,29,27,22,92,78,50,30.25,30.19,30.10,10,10,7,9,3,,0.00,2,,178
2012-11-15,36,27,18,28,16,3,89,63,26,30.53,30.33,30.08,10,10,10,15,7,21,0.00,1,,316
2012-11-16,37,26,14,19,11,6,81,56,27,30.52,30.39,30.21,10,10,10,16,6,,0.00,0,,151
2012-11-17,46,38,30,34,30,21,82,69,60,30.20,30.15,30.09,10,10,8,14,10,,0.00,1,,153
2012-11-18,51,43,35,34,32,30,82,68,50,30.09,30.04,30.00,10,10,10,14,10,,0.00,1,,148
2012-11-19,54,39,24,37,31,21,100,80,53,30.16,30.05,29.98,10,7,1,12,7,,0.00,0,,263
2012-11-20,46,32,17,32,23,16,100,85,42,30.20,30.12,29.97,10,4,0,10,2,,0.00,1,Fog,170
2012-11-21,57,44,30,35,32,27,89,72,42,29.95,29.82,29.57,10,10,8,9,4,,0.00,0,,138
2012-11-22,37,27,16,34,21,10,93,85,77,30.09,29.83,29.55,10,6,1,24,12,34,0.01,6,Snow,306
2012-11-23,19,10,1,10,6,-1,92,78,63,30.46,30.34,30.03,10,8,2,25,16,36,0.00,6,Snow,320
2012-11-24,23,13,5,18,9,1,87,80,71,30.39,30.05,29.78,10,9,2,16,5,,0.00,8,Snow,168
2012-11-25,26,14,0,21,15,-4,86,80,68,30.29,29.98,29.78,10,7,1,21,12,25,0.01,7,Snow,303
2012-11-26,19,6,-8,10,1,-13,83,73,63,30.47,30.36,30.16,10,10,10,9,7,,0.00,3,,260
2012-11-27,28,22,15,20,15,8,82,75,68,30.29,30.18,30.05,10,10,10,16,8,,0.00,7,,282
2012-11-28,30,24,19,23,19,13,88,80,74,30.31,30.20,30.10,10,10,6,13,5,,0.00,4,,234
2012-11-29,25,21,17,22,18,15,100,85,74,30.22,30.17,30.05,10,8,2,12,5,,0.00,7,,64
2012-11-30,30,26,23,28,24,19,100,90,84,30.22,30.10,29.93,10,5,1,18,11,21,0.00,8,,140